Location: Waco, TX
(31.5480°N, 97.1670°W)
Time: 04:05:40
(UTC-06:00)

ISS - Pass Details

Date: 20 November 2017
Orbit: 401 x 407 km, 51.6° (Epoch: 18 November)

Event Time Altitude Azimuth Distance (km) Brightness Sun altitude
Rises 19:28:38 0° 179° (S) 2,306 - -25.7°
Reaches altitude 10° 19:32:16 10° 137° (SE) 1,451 - -26.4°
Maximum altitude 19:32:54 10° 125° (SE) 1,426 - -26.6°
Drops below altitude 10° 19:33:33 10° 114° (ESE) 1,452 - -26.7°
Sets 19:37:11 0° 71° (ENE) 2,315 - -27.5°
